Tewantin Observation History
Time Wind Speed Temp Pressure Rel. Hum Rain
30/11:00am E 6-9 kts 27.6°c 1016.7 hPa 67% 0.0mm
30/10:30am CALM 0-3 kts 26.5°c 1017.0 hPa 73% 0.0mm
30/10:00am ENE 3-5 kts 26.0°c 1017.0 hPa 68% 0.0mm
30/09:30am ESE 3-7 kts 26.6°c 1017.1 hPa 80% 0.0mm
30/09:00am S 5-6 kts 25.2°c 1017.3 hPa 84% 0.2mm
30/08:30am S 4-7 kts 24.6°c 1017.2 hPa 90% 0.2mm
30/08:00am S 5-9 kts 23.5°c 1017.1 hPa 92% 0.2mm
30/07:30am SSW 4-6 kts 22.7°c 1016.8 hPa 100% 0.2mm
30/07:00am S 1-3 kts 21.5°c 1016.5 hPa 100% 0.2mm
30/06:30am CALM 0 kts 20.1°c 1016.2 hPa 100% 0.2mm
30/06:00am CALM 0 kts 19.7°c 1015.9 hPa 100% 0.2mm
30/05:30am CALM 0 kts 19.7°c 1015.8 hPa 100% 0.2mm
30/05:00am S 2-4 kts 19.9°c 1015.7 hPa 100% 0.2mm
30/04:30am CALM 0 kts 20.0°c 1015.8 hPa 100% 0.2mm
30/04:00am CALM 0 kts 20.1°c 1015.8 hPa 100% 0.2mm
30/03:30am CALM 0 kts 20.3°c 1016.0 hPa 100% 0.2mm
30/03:00am CALM 0-1 kts 20.5°c 1016.1 hPa 100% 0.2mm
30/02:30am CALM 0 kts 20.7°c 1016.4 hPa 100% 0.2mm
30/02:00am S 3-5 kts 20.8°c 1016.4 hPa 100% 0.2mm
30/01:30am SW 3-5 kts 21.0°c 1016.9 hPa 100% 0.2mm
30/01:00am SW 3-5 kts 21.4°c 1017.3 hPa 100% 0.2mm
30/12:30am SW 4-5 kts 21.4°c 1017.4 hPa 100% 0.2mm
30/12:00am SSW 4-6 kts 21.8°c 1017.5 hPa 100% 0.2mm
Time Wind Speed Temp Pressure Rel. Hum Rain
29/11:30pm SSW 4-5 kts 21.9°c 1017.4 hPa 100% 0.2mm
29/11:00pm SW 2-4 kts 22.0°c 1017.6 hPa 100% 0.2mm
29/10:30pm SSW 5-8 kts 22.2°c 1017.9 hPa 100% 0.2mm
29/10:00pm SW 3-6 kts 22.4°c 1018.1 hPa 100% 0.2mm
29/09:30pm SW 3-4 kts 22.6°c 1018.2 hPa 99% 0.2mm
29/09:00pm SSW 2-3 kts 23.0°c 1018.1 hPa 95% 0.2mm
29/08:30pm SE 2-4 kts 23.3°c 1017.9 hPa 90% 0.2mm
29/08:00pm SSE 2-4 kts 23.4°c 1017.8 hPa 91% 0.2mm
29/07:30pm SE 3-6 kts 23.6°c 1017.7 hPa 90% 0.2mm
29/07:00pm ESE 4-7 kts 23.7°c 1017.4 hPa 93% 0.2mm
29/06:30pm SSE 4-5 kts 23.9°c 1017.2 hPa 93% 0.2mm
29/06:00pm SE 5-7 kts 24.0°c 1016.9 hPa 87% 0.2mm
29/05:30pm ESE 5-8 kts 24.4°c 1016.7 hPa 83% 0.2mm
29/05:00pm ESE 5-8 kts 24.8°c 1016.4 hPa 81% 0.2mm
29/04:30pm ESE 8-12 kts 24.8°c 1016.2 hPa 79% 0.2mm
29/04:00pm ESE 7-11 kts 25.1°c 1016.2 hPa 77% 0.2mm
29/03:30pm SE 7-13 kts 25.6°c 1016.1 hPa 76% 0.2mm
29/03:00pm ESE 6-9 kts 25.8°c 1016.1 hPa 74% 0.2mm
29/02:30pm ESE 8-13 kts 25.5°c 1016.2 hPa 71% 0.2mm
29/02:00pm ESE 7-13 kts 25.9°c 1016.4 hPa 74% 0.2mm
29/01:30pm SE 7-11 kts 26.1°c 1016.6 hPa 75% 0.2mm
29/01:00pm ESE 6-9 kts 26.0°c 1016.8 hPa 74% 0.2mm
29/12:30pm ESE 7-9 kts 25.9°c 1017.1 hPa 76% 0.2mm
29/12:00pm ESE 7-12 kts 25.6°c 1017.7 hPa 80% 0.2mm
29/11:30am SE 7-12 kts 25.8°c 1017.9 hPa 76% 0.2mm
29/11:00am SE 7-12 kts 25.3°c 1018.2 hPa 77% 0.2mm
29/10:30am SSE 5-8 kts 25.3°c 1018.5 hPa 79% 0.2mm
29/10:00am SSE 6-9 kts 24.6°c 1018.6 hPa 80% 0.0mm
29/09:30am SE 5-7 kts 24.1°c 1018.7 hPa 95% 0.0mm
29/09:00am SSE 5-9 kts 22.1°c 1018.8 hPa 100% 8.4mm
29/08:30am S 8-12 kts 22.5°c 1018.8 hPa 100% 8.4mm
29/08:00am S 7-11 kts 21.9°c 1018.6 hPa 100% 8.4mm
29/07:30am S 5-8 kts 20.7°c 1018.5 hPa 100% 8.4mm
29/07:00am S 5-7 kts 20.4°c 1018.1 hPa 100% 8.4mm
29/06:30am SSW 3-5 kts 20.1°c 1017.5 hPa 100% 8.4mm
29/06:00am S 4-5 kts 19.9°c 1017.2 hPa 100% 8.4mm
29/05:30am SSW 4-6 kts 20.0°c 1016.9 hPa 100% 8.4mm
29/05:00am SSW 3-5 kts 20.1°c 1016.6 hPa 100% 8.4mm
29/04:30am S 4-6 kts 20.3°c 1016.6 hPa 100% 8.4mm
29/04:00am SSW 4-6 kts 20.5°c 1016.5 hPa 100% 8.4mm
29/03:30am SSE 4-7 kts 20.6°c 1016.6 hPa 100% 8.2mm
29/03:00am SSW 2-5 kts 20.6°c 1016.7 hPa 100% 7.4mm
29/02:30am S 4-6 kts 20.6°c 1016.8 hPa 100% 7.2mm
29/02:00am WSW 1-3 kts 20.7°c 1017.0 hPa 100% 7.2mm
29/01:30am CALM 0 kts 20.8°c 1017.3 hPa 100% 7.2mm
29/01:00am WSW 3-5 kts 20.6°c 1017.8 hPa 100% 7.2mm
29/12:30am S 5-7 kts 20.7°c 1017.9 hPa 100% 7.2mm
29/12:00am SSE 5-7 kts 20.4°c 1018.1 hPa 100% 7.2mm
Time Wind Speed Temp Pressure Rel. Hum Rain
28/11:30pm SW 1-4 kts 20.2°c 1018.0 hPa 100% 7.0mm
28/11:00pm SSW 2-4 kts 20.2°c 1018.2 hPa 100% 7.0mm
28/10:30pm S 2-5 kts 20.5°c 1018.5 hPa 100% 6.8mm
28/10:00pm SSW 4-7 kts 20.5°c 1018.8 hPa 100% 6.8mm
28/09:30pm SSW 5-7 kts 20.7°c 1018.7 hPa 100% 6.8mm
28/09:00pm SSW 4-6 kts 20.6°c 1018.7 hPa 100% 6.8mm
28/08:30pm SSW 5-7 kts 20.8°c 1018.5 hPa 100% 6.8mm
28/08:00pm SSW 5-7 kts 20.8°c 1018.2 hPa 100% 6.8mm
28/07:30pm SSW 5-7 kts 21.0°c 1018.1 hPa 100% 6.8mm
28/07:00pm S 5-7 kts 21.2°c 1018.2 hPa 100% 6.8mm
28/06:30pm SSW 5-7 kts 21.4°c 1018.0 hPa 100% 6.8mm
28/06:00pm SSW 4-6 kts 21.6°c 1018.0 hPa 100% 6.8mm
28/05:30pm SSE 4-7 kts 21.8°c 1017.8 hPa 100% 6.8mm
28/05:00pm SE 4-6 kts 22.0°c 1017.5 hPa 100% 6.8mm
28/04:30pm ESE 6-8 kts 22.0°c 1017.4 hPa 100% 6.8mm
28/04:00pm SSE 6-10 kts 22.4°c 1017.5 hPa 100% 6.8mm
28/03:30pm SE 4-7 kts 23.2°c 1017.3 hPa 100% 6.4mm
28/03:00pm N 4-7 kts 21.6°c 1017.6 hPa 100% 6.4mm
28/02:30pm ENE 5-10 kts 21.3°c 1018.1 hPa 100% 5.8mm
28/02:00pm ENE 10-19 kts 19.9°c 1017.7 hPa 100% 3.4mm
28/01:30pm NE 8-13 kts 23.4°c 1017.9 hPa 80% 0.2mm
28/01:00pm SE 11-18 kts 25.5°c 1017.9 hPa 76% 0.2mm
28/12:30pm SE 8-16 kts 25.8°c 1018.0 hPa 77% 0.2mm
28/12:00pm SSE 9-16 kts 26.3°c 1018.4 hPa 77% 0.2mm
28/11:30am SSE 8-15 kts 26.2°c 1018.7 hPa 73% 0.2mm
28/11:00am S 9-13 kts 25.7°c 1019.0 hPa 75% 0.2mm
28/10:30am SSE 9-14 kts 24.7°c 1019.4 hPa 78% 0.2mm
28/10:00am S 9-15 kts 23.9°c 1019.5 hPa 81% 0.2mm
28/09:30am S 11-17 kts 24.1°c 1019.4 hPa 85% 0.0mm
28/09:00am S 7-13 kts 22.7°c 1019.4 hPa 90% 8.8mm
28/08:30am S 10-14 kts 21.2°c 1019.6 hPa 97% 8.8mm
28/08:00am S 7-12 kts 21.1°c 1019.2 hPa 100% 8.8mm
28/07:30am SSW 7-9 kts 19.9°c 1019.0 hPa 100% 8.8mm
28/07:00am SSW 7-10 kts 19.8°c 1018.8 hPa 100% 8.8mm
28/06:30am S 7-9 kts 19.5°c 1018.7 hPa 100% 8.8mm
28/06:00am SSW 7-12 kts 19.1°c 1018.3 hPa 100% 8.6mm
28/05:30am SSW 6-10 kts 19.0°c 1018.2 hPa 100% 8.6mm
28/05:00am S 8-13 kts 19.0°c 1017.9 hPa 100% 8.6mm
28/04:30am S 8-12 kts 19.2°c 1018.0 hPa 100% 8.6mm
28/04:00am SSW 7-11 kts 19.2°c 1017.8 hPa 100% 8.6mm
28/03:30am SSW 6-10 kts 19.2°c 1017.8 hPa 100% 8.6mm
28/03:00am SSW 6-10 kts 19.0°c 1017.9 hPa 100% 7.6mm
28/02:30am S 7-10 kts 19.3°c 1018.3 hPa 100% 7.4mm
28/02:00am S 8-11 kts 19.3°c 1018.5 hPa 100% 7.0mm
28/01:30am S 7-11 kts 19.7°c 1018.7 hPa 100% 7.0mm
28/01:00am S 9-13 kts 20.1°c 1019.0 hPa 100% 7.0mm
28/12:30am S 8-10 kts 20.1°c 1019.1 hPa 100% 7.0mm
28/12:00am S 7-10 kts 20.1°c 1019.4 hPa 100% 7.0mm